TAP1905 LPPT-LPFR

Flight info

Callsign TAP1905
Flight time 0h 27m
Altitude 21000
Route DUZOP1X DUZOP DCT ODEMI ODEMI1C
Aircraft A319/M-SDE3FGHIRWY/LB1

Departure

Time 2026-04-27 09:47
Airport Lisbon Humberto Delgado Airport (LPPT)

Arrival

Time 2026-04-27 10:15
Airport Faro - Gago Coutinho International Airport (LPFR)
Time Latitude Longitude Altitude Speed Heading
2026-04-27 08:49 38.77255 -9.13147 332 ft 0 kts 77°
2026-04-27 09:25 38.77252 -9.13174 332 ft 4 kts 90°
2026-04-27 09:26 38.77256 -9.13210 335 ft 4 kts 114°
2026-04-27 09:26 38.77270 -9.13238 335 ft 4 kts 142°
2026-04-27 09:26 38.77288 -9.13250 337 ft 0 kts 168°
2026-04-27 09:30 38.77286 -9.13249 337 ft 1 kts 168°
2026-04-27 09:30 38.77276 -9.13247 336 ft 2 kts 168°
2026-04-27 09:31 38.77264 -9.13243 334 ft 3 kts 167°
2026-04-27 09:31 38.77241 -9.13236 336 ft 4 kts 167°
2026-04-27 09:31 38.77210 -9.13228 338 ft 5 kts 168°
2026-04-27 09:31 38.77191 -9.13223 334 ft 1 kts 168°
2026-04-27 09:32 38.77185 -9.13221 335 ft 1 kts 168°
2026-04-27 09:32 38.77173 -9.13218 336 ft 2 kts 168°
2026-04-27 09:32 38.77155 -9.13213 338 ft 3 kts 168°
2026-04-27 09:32 38.77125 -9.13204 337 ft 5 kts 168°
2026-04-27 09:33 38.77085 -9.13193 338 ft 6 kts 167°
2026-04-27 09:33 38.77038 -9.13180 338 ft 7 kts 168°
2026-04-27 09:33 38.76987 -9.13166 338 ft 8 kts 168°
2026-04-27 09:33 38.76926 -9.13150 337 ft 9 kts 168°
2026-04-27 09:34 38.76861 -9.13133 339 ft 10 kts 168°
2026-04-27 09:34 38.76792 -9.13141 338 ft 10 kts 219°
2026-04-27 09:34 38.76772 -9.13218 338 ft 10 kts 259°
2026-04-27 09:34 38.76759 -9.13302 349 ft 9 kts 258°
2026-04-27 09:35 38.76738 -9.13372 351 ft 8 kts 239°
2026-04-27 09:35 38.76702 -9.13420 351 ft 7 kts 220°
2026-04-27 09:35 38.76664 -9.13460 347 ft 7 kts 230°
2026-04-27 09:35 38.76648 -9.13519 345 ft 7 kts 257°
2026-04-27 09:36 38.76636 -9.13586 348 ft 0 kts 257°
2026-04-27 09:42 38.76636 -9.13590 347 ft 2 kts 258°
2026-04-27 09:42 38.76632 -9.13615 345 ft 4 kts 260°
2026-04-27 09:42 38.76626 -9.13659 351 ft 7 kts 259°
2026-04-27 09:42 38.76615 -9.13728 350 ft 10 kts 258°
2026-04-27 09:43 38.76589 -9.13869 346 ft 0 kts 257°
2026-04-27 09:44 38.76589 -9.13870 346 ft 1 kts 257°
2026-04-27 09:44 38.76587 -9.13882 346 ft 2 kts 257°
2026-04-27 09:44 38.76582 -9.13912 351 ft 4 kts 258°
2026-04-27 09:44 38.76576 -9.13955 346 ft 6 kts 259°
2026-04-27 09:45 38.76560 -9.14007 350 ft 7 kts 240°
2026-04-27 09:45 38.76531 -9.14055 354 ft 7 kts 230°
2026-04-27 09:45 38.76501 -9.14106 351 ft 8 kts 240°
2026-04-27 09:45 38.76499 -9.14187 343 ft 12 kts 285°
2026-04-27 09:46 38.76536 -9.14295 336 ft 14 kts 298°
2026-04-27 09:46 38.76569 -9.14375 334 ft 11 kts 305°
2026-04-27 09:46 38.76638 -9.14392 336 ft 10 kts 15°
2026-04-27 09:46 38.76649 -9.14387 334 ft 1 kts 19°
2026-04-27 09:47 38.76736 -9.14344 339 ft 49 kts 21°
2026-04-27 09:47 38.77372 -9.13998 363 ft 140 kts 22°
2026-04-27 09:47 38.78493 -9.13396 476 ft 196 kts 23°
2026-04-27 09:47 38.79851 -9.12634 1442 ft 197 kts 25°
2026-04-27 09:48 38.81046 -9.11888 2276 ft 198 kts 26°
2026-04-27 09:48 38.82229 -9.11154 3086 ft 195 kts 26°
2026-04-27 09:48 38.83483 -9.10320 3716 ft 207 kts 29°
2026-04-27 09:48 38.84795 -9.09323 4078 ft 232 kts 31°
2026-04-27 09:49 38.86253 -9.08167 4591 ft 257 kts 33°
2026-04-27 09:49 38.87553 -9.06408 5398 ft 271 kts 60°
2026-04-27 09:49 38.88038 -9.04088 6355 ft 276 kts 89°
2026-04-27 09:49 38.87733 -9.01640 7366 ft 280 kts 111°
2026-04-27 09:50 38.86680 -8.99547 8328 ft 283 kts 137°
2026-04-27 09:50 38.84960 -8.98201 9297 ft 287 kts 160°
2026-04-27 09:50 38.83082 -8.97363 10232 ft 291 kts 162°
2026-04-27 09:50 38.81093 -8.96486 10672 ft 314 kts 161°
2026-04-27 09:51 38.78929 -8.95523 11099 ft 335 kts 161°
2026-04-27 09:51 38.76683 -8.94512 11846 ft 342 kts 161°
2026-04-27 09:51 38.74395 -8.93477 12656 ft 347 kts 161°
2026-04-27 09:51 38.72110 -8.92446 13450 ft 351 kts 161°
2026-04-27 09:52 38.69779 -8.91397 14225 ft 356 kts 161°
2026-04-27 09:52 38.67410 -8.90331 14983 ft 360 kts 161°
2026-04-27 09:52 38.65010 -8.89253 15722 ft 364 kts 161°
2026-04-27 09:52 38.63431 -8.88545 16194 ft 366 kts 161°
2026-04-27 09:53 38.60182 -8.87091 17127 ft 372 kts 161°
2026-04-27 09:53 38.58481 -8.86330 17601 ft 374 kts 161°
2026-04-27 09:53 38.56015 -8.85230 18266 ft 378 kts 161°
2026-04-27 09:53 38.53536 -8.84122 18918 ft 382 kts 161°
2026-04-27 09:54 38.51011 -8.82993 19567 ft 385 kts 161°
2026-04-27 09:54 38.48487 -8.81864 20193 ft 389 kts 161°
2026-04-27 09:54 38.45888 -8.80703 20771 ft 393 kts 161°
2026-04-27 09:54 38.43245 -8.79522 20964 ft 394 kts 161°
2026-04-27 09:55 38.40643 -8.78360 21011 ft 400 kts 161°
2026-04-27 09:55 38.37995 -8.77177 21009 ft 401 kts 161°
2026-04-27 09:55 38.32682 -8.74809 21011 ft 402 kts 161°
2026-04-27 09:56 38.30078 -8.73649 21011 ft 402 kts 161°
2026-04-27 09:56 38.27414 -8.72465 21008 ft 402 kts 161°
2026-04-27 09:56 38.24761 -8.71290 21010 ft 402 kts 161°
2026-04-27 09:56 38.22110 -8.70119 21009 ft 402 kts 161°
2026-04-27 09:57 38.19443 -8.68943 21009 ft 402 kts 161°
2026-04-27 09:57 38.16768 -8.67762 21009 ft 402 kts 161°
2026-04-27 09:57 38.14122 -8.66587 21008 ft 402 kts 161°
2026-04-27 09:57 38.11443 -8.65399 21007 ft 402 kts 161°
2026-04-27 09:58 38.08799 -8.64229 21007 ft 403 kts 161°
2026-04-27 09:58 38.06154 -8.63059 21007 ft 402 kts 161°
2026-04-27 09:58 38.03512 -8.61892 21006 ft 402 kts 161°
2026-04-27 09:58 38.00834 -8.60713 21007 ft 402 kts 161°
2026-04-27 09:59 37.98190 -8.59551 21008 ft 402 kts 161°
2026-04-27 09:59 37.95553 -8.58395 21007 ft 398 kts 161°
2026-04-27 09:59 37.92912 -8.57239 21008 ft 395 kts 161°
2026-04-27 09:59 37.90322 -8.56103 21010 ft 394 kts 161°
2026-04-27 10:00 37.87730 -8.54963 21009 ft 394 kts 161°
2026-04-27 10:00 37.85143 -8.53826 21011 ft 394 kts 161°
2026-04-27 10:00 37.82516 -8.52678 21008 ft 394 kts 161°
2026-04-27 10:00 37.79891 -8.51533 20960 ft 394 kts 161°
2026-04-27 10:01 37.77283 -8.50395 20073 ft 400 kts 161°
2026-04-27 10:01 37.74616 -8.49226 18981 ft 400 kts 161°
2026-04-27 10:01 37.71993 -8.48072 17914 ft 399 kts 161°
2026-04-27 10:01 37.69345 -8.46908 16844 ft 397 kts 161°
2026-04-27 10:02 37.66746 -8.45772 15788 ft 394 kts 161°
2026-04-27 10:02 37.64164 -8.44648 14745 ft 391 kts 161°
2026-04-27 10:02 37.61514 -8.43753 13689 ft 391 kts 168°
2026-04-27 10:02 37.58776 -8.43072 12609 ft 399 kts 169°
2026-04-27 10:03 37.56031 -8.42402 11549 ft 405 kts 169°
2026-04-27 10:03 37.53250 -8.41724 10568 ft 407 kts 169°
2026-04-27 10:03 37.50465 -8.41047 9840 ft 400 kts 169°
2026-04-27 10:03 37.47762 -8.40390 9344 ft 387 kts 169°
2026-04-27 10:04 37.45210 -8.39770 9334 ft 361 kts 169°
2026-04-27 10:04 37.43569 -8.39371 9100 ft 351 kts 169°
2026-04-27 10:04 37.41204 -8.38795 8701 ft 341 kts 169°
2026-04-27 10:04 37.38875 -8.38228 8295 ft 332 kts 169°
2026-04-27 10:05 37.36609 -8.37676 7890 ft 324 kts 169°
2026-04-27 10:05 37.34418 -8.37142 7476 ft 317 kts 169°
2026-04-27 10:05 37.32236 -8.36610 7045 ft 312 kts 169°
2026-04-27 10:05 37.30125 -8.36096 6623 ft 307 kts 169°
2026-04-27 10:06 37.28013 -8.35581 6190 ft 302 kts 169°
2026-04-27 10:06 37.25976 -8.35084 5767 ft 298 kts 169°
2026-04-27 10:06 37.23917 -8.34583 5333 ft 294 kts 169°
2026-04-27 10:06 37.21927 -8.34098 4900 ft 290 kts 169°
2026-04-27 10:07 37.19934 -8.33612 4475 ft 285 kts 169°
2026-04-27 10:07 37.17974 -8.33134 4085 ft 280 kts 169°
2026-04-27 10:07 37.16090 -8.32674 4000 ft 263 kts 169°
2026-04-27 10:07 37.14362 -8.32251 4007 ft 244 kts 169°
2026-04-27 10:08 37.12751 -8.31856 4009 ft 228 kts 169°
2026-04-27 10:08 37.11226 -8.31481 4014 ft 213 kts 169°
2026-04-27 10:08 37.09820 -8.31133 4013 ft 199 kts 169°
2026-04-27 10:08 37.08493 -8.30780 4015 ft 193 kts 167°
2026-04-27 10:09 37.07248 -8.30108 4021 ft 193 kts 146°
2026-04-27 10:09 37.06301 -8.28931 4018 ft 193 kts 124°
2026-04-27 10:09 37.05764 -8.27368 4016 ft 194 kts 101°
2026-04-27 10:09 37.05531 -8.25711 4017 ft 194 kts 99°
2026-04-27 10:10 37.05298 -8.24025 3953 ft 195 kts 100°
2026-04-27 10:10 37.05066 -8.22361 3749 ft 194 kts 100°
2026-04-27 10:10 37.04835 -8.20701 3508 ft 194 kts 100°
2026-04-27 10:10 37.04599 -8.19013 3251 ft 195 kts 100°
2026-04-27 10:11 37.04365 -8.17341 2995 ft 195 kts 100°
2026-04-27 10:11 37.04130 -8.15662 2739 ft 196 kts 100°
2026-04-27 10:11 37.03895 -8.13983 2510 ft 192 kts 100°
2026-04-27 10:11 37.03667 -8.12362 2213 ft 184 kts 100°
2026-04-27 10:12 37.03450 -8.10817 1978 ft 175 kts 100°
2026-04-27 10:12 37.03240 -8.09326 1739 ft 167 kts 100°
2026-04-27 10:12 37.03043 -8.07922 1531 ft 158 kts 100°
2026-04-27 10:12 37.02857 -8.06601 1326 ft 150 kts 100°
2026-04-27 10:13 37.02678 -8.05330 1132 ft 143 kts 100°
2026-04-27 10:13 37.02504 -8.04102 940 ft 140 kts 100°
2026-04-27 10:13 37.02392 -8.03291 815 ft 139 kts 100°
2026-04-27 10:13 37.02232 -8.02107 636 ft 138 kts 99°
2026-04-27 10:14 37.02061 -8.00897 453 ft 137 kts 100°
2026-04-27 10:14 37.01883 -7.99680 266 ft 136 kts 100°
2026-04-27 10:14 37.01714 -7.98487 93 ft 136 kts 100°
2026-04-27 10:14 37.01553 -7.97347 19 ft 125 kts 99°
2026-04-27 10:15 37.01441 -7.96578 23 ft 36 kts 103°
2026-04-27 10:15 37.01444 -7.96294 22 ft 25 kts 72°
2026-04-27 10:15 37.01507 -7.96130 20 ft 15 kts 41°
2026-04-27 10:15 37.01514 -7.96122 21 ft 0 kts 36°
2026-04-27 10:16 37.01515 -7.96122 21 ft 2 kts 36°
2026-04-27 10:16 37.01576 -7.96099 19 ft 11 kts 12°
2026-04-27 10:17 37.01658 -7.96081 21 ft 13 kts
2026-04-27 10:17 37.01726 -7.96134 18 ft 13 kts 291°
2026-04-27 10:17 37.01743 -7.96243 19 ft 13 kts 279°
2026-04-27 10:17 37.01759 -7.96359 21 ft 14 kts 279°
2026-04-27 10:18 37.01776 -7.96482 21 ft 15 kts 280°
2026-04-27 10:18 37.01798 -7.96617 20 ft 16 kts 282°
2026-04-27 10:18 37.01815 -7.96732 23 ft 14 kts 280°
2026-04-27 10:18 37.01832 -7.96845 22 ft 10 kts 287°
2026-04-27 10:19 37.01869 -7.96860 20 ft 6 kts 359°
2026-04-27 10:19 37.01901 -7.96851 20 ft 3 kts 13°
2026-04-27 10:19 37.01909 -7.96849 20 ft 0 kts 12°